www.pogodaiklimat.ru

Погода и климат >> Архив погоды >> Монголия >> Сайкхан-Ову


ПОГОДА в Сайкхан-Ову

  • Прогноз погоды в Сайкхан-Ову
  • Монитор погоды в Сайкхан-Ову

АРХИВ ПОГОДЫ в Сайкхан-Ову

Время (UTC), дата Ветер
(напр.,м/с)
 
Видим.   Явления Облачность Т
(С)
Тd
(С)
f
(%)
Тe
(С)
Тes
(С)
Комфортность P
(гПа)
Po
(гПа)
Тmin
(С)
Tmax
(С)
R
(мм)
R24
(мм)
S
(см)
09 10.09 Ю 5 50 км 3/3 1000 м
[Cu hum Ci]
+26.0 -0.9 17 +24 +25 комфорт 1008.3 867.3
12 10.09 ЮВ 2 50 км ясно +22.4 -0.3 22 +22 +22 комфорт 1010.0 867.1 +26.4
15 10.09 ЮВ 4 н/о ясно +18.0 -1.3 27 +18 +18 1013.8 868.4
18 10.09 ЮВ 2 н/о ясно +15.2 -0.6 34 +15 +15 1015.4 868.5
21 10.09 В 1 н/о ясно +13.7 0.0 39 +14 +14 1015.2 867.7
00 11.09 штиль 0 50 км 4/0
[Cs]
+16.1 +2.8 41 +16 +17 1013.8 867.6 +12.3
03 11.09 ЮВ 5 50 км 3/0
[Ac lent]
+21.9 +6.2 36 +23 +26 комфорт 1009.6 866.6
06 11.09 Ю 5 50 км 5/5 600 м
[Cu med, cong]
+24.5 +4.3 27 +24 +27 комфорт 1005.3 864.1
09 11.09 Ю 4 50 км 4/4 600 м
[Cu hum]
+25.5 +3.5 24 +25 +26 комфорт 1002.0 861.7
12 11.09 штиль 0 н/о 3/0
[Ci]
+21.9 +3.6 30 +22 +22 комфорт 1004.0 861.8 +25.8
15 11.09 ЮЗ 7 н/о 9/0
[As trans]
+20.5 +4.1 34 +21 +21 комфорт 1004.3 861.4
18 11.09 З 8 н/о 10/10 600 м
[Sc]
+17.9 +4.1 40 +17 +17 1006.9 862.5
21 11.09 С 5 н/о слаб. дождь 10/0 600 м
[As op]
+12.9 +8.6 75 +11 +11 1011.9 864.4
00 12.09 С 3 10 км слаб. дождь 10/0 600 м
[As op]
+10.4 +10.7 100 +8 +8 1016.8 867.4 +10.4 4
03 12.09 С 4 50 км {дождь} 8/8 600 м
[Sc]
+11.9 +4.8 62 +10 +11 1016.0 867.4
06 12.09 СВ 2 50 км {дождь} 6/6 600 м
[Sc]
+14.5 +4.5 51 +14 +19 1013.3 866.4
09 12.09 С 6 50 км 6/4 600 м
[Cu med, cong Ac cuf]
+13.1 +3.7 53 +11 +12 1014.7 866.9
12 12.09 штиль 0 н/о 3/0
[Ac lent]
+11.6 +5.2 65 +11 +11 1016.9 868.1 +16.0 0.5
15 12.09 штиль 0 н/о ясно +8.2 +6.8 91 +7 +7 1019.6 868.7
18 12.09 Ю 2 н/о ясно +7.8 +4.2 78 +6 +6 1019.8 868.7
21 12.09 ЮВ 2 н/о 5/0
[Ac As]
+6.5 +5.1 91 +4 +4 1019.5 867.8
00 13.09 С 2 50 км 5/0
[Ac trans Ci]
+7.7 +5.7 87 +6 +6 1019.9 868.7 +4.7
03 13.09 СЗ 4 50 км 3/0
[Cc]
+12.5 +3.2 53 +11 +16 1018.3 869.7
06 13.09 СЗ 4 50 км 6/6 600 м
[Cu med, cong]
+15.7 +1.4 38 +15 +18 1015.7 869.0
09 13.09 З 3 50 км 4/4 600 м
[Cu med, cong]
+17.9 -4.1 22 +18 +20 1013.0 867.7
12 13.09 З 5 н/о ясно +15.2 -5.8 23 +14 +14 1014.4 867.6 +18.1
15 13.09 З 2 н/о ясно +11.5 -4.4 33 +11 +11 1013.4 867.4
18 13.09 З 6 н/о ясно +10.5 -5.9 31 +8 +8 1016.5 867.2
21 13.09 штиль 0 н/о ясно +8.4 -5.4 37 +8 +8 1017.1 866.7
00 14.09 ЮВ 4 50 км ясно +7.3 -3.3 47 +4 +5 1018.0 866.9 +6.4
03 14.09 З 4 50 км ясно +16.1 -8.2 18 +16 +21 1012.7 866.6
06 14.09 З 7 50 км 3/0
[Cs]
+19.5 -9.6 13 +19 +22 1008.7 864.9
09 14.09 З 10
{16}
50 км 4/3 600 м
[Cu med, cong Cs]
+20.1 -12.5 10 +19 +19 1006.6 863.3
12 14.09 З 6
{16}
н/о 4/0
[Ac trans]
+16.7 -5.7 21 +16 +16 1009.5 864.1 +20.7
15 14.09 СЗ 2 н/о 3/0
[Ac cast]
+10.5 -1.5 43 +10 +10 1016.9 867.5
18 14.09 С 2 н/о ясно +9.5 -2.1 44 +8 +8 1020.4 870.0
21 14.09 СВ 2 н/о 3/0
[Ci]
+6.8 -3.2 49 +5 +5 1023.3 871.2
00 15.09 З 2 50 км ясно +6.0 -2.1 56 +4 +5 1025.5 872.7 +4.9
03 15.09 СВ 2 50 км 3/0
[Ci]
+11.5 -5.0 31 +11 +19 1023.6 873.7
06 15.09 З 2 50 км 1/0
[Ci]
+14.7 -6.2 23 +15 +25 1019.9 872.1
09 15.09 З 4 50 км 3/0
[Ci]
+16.8 -6.3 20 +16 +18 1016.8 870.4
12 15.09 штиль 0 н/о ясно +14.0 -5.2 26 +14 +14 1017.9 870.0 +17.3
15 15.09 Ю 3 н/о ясно +10.7 -5.3 32 +9 +9 1020.0 870.3
18 15.09 ЮВ 2 н/о ясно +9.1 -5.2 36 +8 +8 1020.3 869.7
21 15.09 В 2 н/о ясно +5.8 -4.1 49 +4 +4 1021.1 868.8
00 16.09 СЗ 1 50 км ясно +5.9 -1.7 58 +5 +6 1021.8 869.4 +5.3
03 16.09 С 1 50 км ясно +15.0 -4.9 25 +16 +26 1016.8 869.6
06 16.09 СВ 2 50 км 3/3 600 м
[Cu med, cong]
+19.8 -8.5 14 +20 +27 1012.6 868.2
09 16.09 З 3 50 км 4/4 600 м
[Cu med, cong]
+21.0 -8.5 13 +21 +22 комфорт 1010.7 867.1
12 16.09 В 3 н/о 4/0
[Ac trans]
+17.8 -6.8 18 +18 +18 1013.5 868.1 +21.1
15 16.09 СВ 3 н/о ясно +12.8 -3.9 31 +12 +12 1019.8 871.1
18 16.09 С 3 н/о ясно +10.6 -3.8 36 +9 +9 1023.4 873.2
21 16.09 СЗ 1 н/о ясно +6.3 -1.8 56 +6 +6 1027.7 874.6
00 17.09 В 1 50 км ясно +8.4 -2.0 48 +8 +9 1029.3 877.1 +5.4
03 17.09 В 4 50 км ясно +13.9 -1.7 34 +13 +18 1028.1 878.7
06 17.09 Ю 1 50 км ясно +18.1 -3.9 22 +19 +32 опасность
простуды
1024.7 877.8

 

Местоположение метеостанции Сайкхан-Ову (Монголия): широта 45.45 долгота 103.90 высота над уровнем моря 1316 м.

В архиве по умолчанию представлена погода в Сайкхан-Ову за последнюю неделю. Архивные данные за месяц целиком и за предыдущие месяцы, начиная с января 2011 года, Вы можете получить, выбрав интересующий диапазон дат из раскрывающегося списка и нажав кнопку "Ввод!".


*Определитесь, кто Вы:
робот инопланетянин человек

Внимание! Время в таблицах - всемирное. Для получения местного времени необходимо прибавить поправку, которая равна 8 ч.

Смотрите также архив погоды в соседних городах и на ближайших метеорологических станциях:

Погода в Арвайхээре (Монголия) (126 км)
Погода в Цогт-Овоо (Монголия) (160 км)
Погода в Богде (Монголия) (163 км)
Погода в Бат Олжий Вунд (Монголия) (169 км)
Погода в Хужирте (Монголия) (184 км)
Погода в Мандалгоби (Монголия) (189 км)
Погода в Даланзадгаде (Монголия) (212 км)
Погода в Баянхонгоре (Монголия) (261 км)
Погода на Баян Добо Сума (Монголия) (276 км)
Погода в Цэцэрлэге (Монголия) (291 км)

Пояснения к столбцам:

Ветер - указаны скорость ветра в м/с - средняя за 10 мин, порывы в срок и между сроками (в фигурных скобках) и направление, откуда дует ветер: С - северный, СВ - северо-восточный, В - восточный, ЮВ - юго-восточный, Ю - южный, ЮЗ - юго-западный, З - западный, СЗ - северо-западный.
Видимость - горизонтальная дальность видимости в метрах или километрах. При видимости от 1 до 10 км при отсутствии осадков обычно наблюдается дымка, при ухудшении видимости до 1 км и менее - туман. В сухую погоду видимость может ухудшаться дымом, пылью или мглою.
Явления - указаны атмосферные явления, наблюдавшиеся в срок или в последний час перед сроком; фигурными скобками обозначены явления, наблюдавшиеся между сроками (за 1-3 часа до срока); квадратными скобками обозначены град или гололедные отложения с указанием их диаметра в мм.
Облачность - указаны через наклонную черту общая и нижняя облачность в баллах и высота нижней границы облаков в метрах; квадратными скобками обозначены формы облаков: Ci - перистые, Cs - перисто-слоистые, Cc - перисто-кучевые, Ac - высококучевые, As - высокослоистые, Sc - слоисто-кучевые, Ns - слоисто-дождевые, Cu - кучевые, Cb - кучево-дождевые. Подробнее классификацию облаков см. в Атласе облаков (PDF).
T - Температура воздуха - температура, измеренная на высоте 2 м над землей.
Td - Температура точки росы - температура, при понижении до которой содержащийся в воздухе водяной пар достигнет насыщения.
f - Относительная влажность воздуха - влажноcть воздуха, измеренная на высоте 2 м над землей.
Te - Эффективная температура - температура, которую ощущает одетый по сезону человек в тени. Характеристика душности погоды. При расчете учитывается влияние влажности воздуха и скорости ветра на теплоощущения человека.
Tes - Эффективная температура на солнце - температура, которую ощущает человек, с поправкой на солнечный нагрев. Характеристика знойности погоды. Зависит от высоты солнца над горизонтом, облачности и скорости ветра. Ночью, в пасмурную погоду, а также при ветре 12 м/с и более поправка равна нулю.
P - Атмосферное давление - приведенное к уровню моря атмосферное давление.
Po - Атмосферное давление - измеренное на уровне метеостанции атмосферное давление.
Tmin - Минимальная температура - минимум температуры воздуха на высоте 2 м над землей.
Tmax - Максимальная температура - максимум температуры воздуха на высоте 2 м над землей.
R - Количество осадков - Количество выпавших осадков за период времени, мм. При наведении курсора мыши на число - период времени, за который выпало указанное количество осадков.
R24 - Количество осадков - Количество выпавших осадков за 24 часа, мм.
S - Снежный покров - Высота снежного покрова, см. При наведении курсора мыши на число - состояние снежного покрова и степень покрытия местности в баллах.